[[{"header":{"parameterUnit":"m.s-1","parameterCategory":1,"la1":30.2991,"la2":30.254,"lo1":-89.0895,"lo2":-89.0444,"dy":0.0017,"dx":0.0017,"nx":28,"ny":28,"refTime":"2025-02-28T09:00:00:Z","depth":0,"parameterNumber":2,"parameterNumberName":"U-component_of_WINDS"},"data":[0,0,0,0,0,0,0,0,0,0,0,0,0,0,0,0,0,0,0,0,0,0,0,0,0,0,0,0,0,0,0,0,0,0,0,0,0,0,0,0,0,0,0,0,0,0,0,0,0,0,0,0,0,0,0,0,0,0,-0.0144,-0.0144,0,-0.0189,-0.019,-0.019,-0.0188,-0.0188,-0.0187,-0.0186,-0.0236,-0.0238,-0.024,0,0,0,0,0,0,0,0,0,0,0,0,0,-0.0057,-0.0059,-0.0143,-0.0144,-0.0145,-0.0189,-0.019,-0.019,-0.0188,-0.0188,-0.0187,-0.0186,-0.0235,-0.0238,-0.024,0,0,0,0,0,0,0,0,0,0,0,0,0,-0.0098,-0.0059,-0.0143,-0.0149,-0.015,-0.0189,-0.019,-0.019,-0.0189,-0.0188,-0.0187,-0.0186,-0.0235,-0.0237,-0.024,-0.0278,0,0,-0.0249,-0.025,0,0,0,0,0,0,0,0,-0.0096,-0.0101,-0.0148,-0.0149,-0.015,-0.0182,-0.0177,-0.022,-0.0189,-0.0174,-0.0186,-0.0185,-0.0219,-0.0223,-0.0234,-0.028,-0.0282,-0.0249,-0.0251,-0.0252,-0.0253,0,0,0,0,0,0,0,-0.0093,-0.0099,-0.0162,-0.0148,-0.015,-0.015,-0.0155,-0.0185,-0.0202,-0.0175,-0.0175,-0.018,-0.0219,-0.0231,-0.0235,-0.0283,-0.0249,-0.0252,-0.0254,-0.0255,-0.0362,-0.0363,0,0,0,0,0,0,-0.0088,-0.0097,-0.016,-0.0163,-0.012,-0.0152,-0.0158,-0.0173,-0.0201,-0.0205,-0.0181,-0.018,-0.0227,-0.0232,-0.0237,-0.0283,-0.0252,-0.0255,-0.0257,-0.036,-0.0362,-0.0363,0,0,0,0,0,0,-0.0086,-0.0094,-0.0158,-0.013,-0.0138,-0.0155,-0.0172,-0.0174,-0.0186,-0.0206,-0.0209,-0.019,-0.0226,-0.0233,-0.0267,-0.0284,-0.0256,-0.0259,-0.0359,-0.0361,-0.0362,-0.0374,0,0,0,0,0,0,-0.0084,-0.0093,-0.0107,-0.013,-0.014,-0.0188,-0.0173,-0.0176,-0.019,-0.0189,-0.0215,-0.0218,-0.0226,-0.0263,-0.027,-0.0288,-0.0261,-0.0358,-0.036,-0.0362,-0.0373,-0.0376,-0.0379,0,0,0,0,0,-0.0081,-0.0109,-0.0108,-0.0116,-0.0157,-0.0188,-0.0194,-0.0202,-0.0192,-0.0206,-0.0219,-0.0217,-0.0281,-0.0267,-0.0275,-0.0293,-0.0357,-0.0359,-0.0362,-0.0371,-0.0375,-0.0379,0,0,0,0,0,0,-0.009,-0.0113,-0.0111,-0.0148,-0.0166,-0.0188,-0.0207,-0.0206,-0.0228,-0.0227,-0.0236,-0.0241,-0.0276,-0.0288,-0.0272,-0.0331,-0.0318,-0.0322,-0.0322,-0.0326,-0.033,-0.0327,-0.0264,0,0,0,0,0,-0.0095,-0.0118,-0.0137,-0.0168,-0.0177,-0.019,-0.0204,-0.0208,-0.0228,-0.0236,-0.0251,-0.0271,-0.0295,-0.0311,-0.0335,-0.0374,-0.038,-0.039,-0.0394,-0.0397,-0.0401,-0.0422,-0.0427,-0.0371,-0.0371,-0.0371,0,0,-0.0109,-0.0124,-0.0138,-0.017,-0.0184,-0.0208,-0.0197,-0.0223,-0.0241,-0.024,-0.0273,-0.0285,-0.0308,-0.0345,-0.0362,-0.0356,-0.0417,-0.04,-0.0402,-0.0404,-0.0425,-0.0431,-0.0435,-0.0373,-0.0373,-0.0372,0,0,-0.0145,-0.0158,-0.0185,-0.0199,-0.0221,-0.023,-0.0236,-0.0258,-0.0265,-0.0298,-0.0298,-0.032,-0.0362,-0.0378,-0.0392,-0.0433,-0.0432,-0.044,-0.0458,-0.0479,-0.0484,-0.0488,-0.0503,-0.0508,-0.0444,-0.0444,-0.0444,0,-0.0159,-0.0194,-0.0199,-0.0225,-0.0239,-0.0238,-0.0266,-0.028,-0.0309,-0.0319,-0.0311,-0.0363,-0.0379,-0.0419,-0.0429,-0.044,-0.0448,-0.0438,-0.0482,-0.0486,-0.049,-0.0505,-0.0511,-0.0444,-0.0444,-0.0444,-0.0444,0,-0.021,-0.0234,-0.0254,-0.028,-0.0296,-0.0323,-0.0333,-0.0349,-0.0351,-0.0361,-0.0395,-0.0412,-0.044,-0.0449,-0.0452,-0.049,-0.0486,-0.048,-0.0468,-0.0496,-0.051,-0.0516,-0.0446,-0.0445,-0.0445,-0.0445,0,0,-0.0255,-0.0282,-0.029,-0.0302,-0.0325,-0.0344,-0.0371,-0.0396,-0.041,-0.0429,-0.0452,-0.0487,-0.0481,-0.0497,-0.0502,-0.052,-0.0551,-0.0512,-0.0513,-0.0519,-0.0595,-0.06,-0.0606,-0.055,-0.0552,-0.0552,-0.0594,0,-0.0294,-0.034,-0.0345,-0.0387,-0.041,-0.0408,-0.0431,-0.0448,-0.0458,-0.0479,-0.0489,-0.0514,-0.0504,-0.0514,-0.0531,-0.0544,-0.0567,-0.0541,-0.0573,-0.0574,-0.0569,-0.0614,-0.0619,-0.0657,-0.0599,-0.06,-0.0601,0,-0.0346,-0.0366,-0.0409,-0.0429,-0.0439,-0.0459,-0.0483,-0.0503,-0.0522,-0.0527,-0.0544,-0.0546,-0.0574,-0.0559,-0.0598,-0.058,-0.0593,-0.0601,-0.0603,-0.0607,-0.059,-0.062,-0.0669,-0.0676,-0.0609,-0.0608,-0.0608,0,-0.0375,-0.0413,-0.0444,-0.0454,-0.0477,-0.0492,-0.0502,-0.052,-0.0535,-0.0555,-0.0565,-0.0589,-0.0603,-0.0621,-0.063,-0.0618,-0.0668,-0.0654,-0.0674,-0.0674,-0.0687,-0.0686,-0.074,-0.0693,-0.0693,-0.0693,-0.0693,0,-0.0419,-0.0446,-0.0457,-0.0476,-0.0506,-0.0512,-0.0542,-0.0552,-0.0568,-0.0589,-0.0589,-0.061,-0.0619,-0.0641,-0.0647,-0.0679,-0.0685,-0.0691,-0.0692,-0.0691,-0.0691,-0.0701,-0.07,-0.0694,-0.0694,-0.0694,-0.0693,0,-0.0458,-0.0466,-0.0499,-0.0518,-0.0523,-0.0545,-0.0561,-0.058,-0.0588,-0.0615,-0.0622,-0.0635,-0.0661,-0.0671,-0.0702,-0.0707,-0.0744,-0.0743,-0.0737,-0.0738,-0.0758,-0.0757,-0.0822,-0.0831,-0.0777,-0.0778,-0.0778,0,-0.0486,-0.0507,-0.0527,-0.0541,-0.0551,-0.0574,-0.0589,-0.0594,-0.061,-0.0633,-0.0649,-0.0674,-0.0695,-0.0736,-0.0749,-0.0773,-0.0774,-0.0795,-0.0777,-0.0776,-0.0775,-0.0774,-0.0777,-0.0798,-0.0799,-0.0799,-0.08,0,-0.0536,-0.0538,-0.0559,-0.0581,-0.0598,-0.0616,-0.0633,-0.0644,-0.0653,-0.067,-0.0696,-0.0712,-0.0743,-0.0769,-0.0793,-0.0805,-0.0804,-0.0805,-0.0811,-0.0811,-0.0807,-0.081,-0.0747,-0.0804,-0.0803,-0.0803,-0.0803,-0.0803,-0.0571,-0.0589,-0.0606,-0.0628,-0.0642,-0.0658,-0.0676,-0.0686,-0.0707,-0.0733,-0.0735,-0.0762,-0.0781,-0.0813,-0.0826,-0.0848,-0.0843,-0.0852,-0.0854,-0.0856,-0.0858,-0.0802,-0.0853,-0.0852,-0.0852,-0.0852,-0.0852,0,-0.0621,-0.0631,-0.0652,-0.0676,-0.0694,-0.0689,-0.0708,-0.0724,-0.0748,-0.0764,-0.0784,-0.0814,-0.0838,-0.0852,-0.0877,-0.0892,-0.0892,-0.0898,-0.0898,-0.0901,-0.0861,-0.0854,-0.0897,-0.0897,-0.0897,-0.0897,-0.0897,-0.0897,-0.0649,-0.068,-0.0684,-0.0721,-0.0732,-0.0758,-0.0769,-0.0784,-0.0797,-0.083,-0.0849,-0.0858,-0.0874,-0.0899,-0.0921,-0.0925,-0.0934,-0.0941,-0.0944,-0.0908,-0.0903,-0.0899,-0.0892,-0.0943,-0.0943,-0.0982,-0.0982,-0.0983]},{"header":{"parameterUnit":"m.s-1","parameterCategory":1,"la1":30.2991,"la2":30.254,"lo1":-89.0895,"lo2":-89.0444,"dy":0.0017,"dx":0.0017,"nx":28,"ny":28,"refTime":"2025-02-28T09:00:00:Z","depth":0,"parameterNumber":3,"parameterNumberName":"V-component_of_WINDS"},"data":[0,0,0,0,0,0,0,0,0,0,0,0,0,0,0,0,0,0,0,0,0,0,0,0,0,0,0,0,0,0,0,0,0,0,0,0,0,0,0,0,0,0,0,0,0,0,0,0,0,0,0,0,0,0,0,0,0,0,-4.1705,-4.1706,0,-4.1783,-4.1784,-4.1785,-4.1728,-4.1726,-4.1723,-4.1721,-4.1798,-4.1802,-4.1807,0,0,0,0,0,0,0,0,0,0,0,0,0,-4.1503,-4.1507,-4.1705,-4.1706,-4.1707,-4.1783,-4.1784,-4.1785,-4.1729,-4.1725,-4.1722,-4.172,-4.1797,-4.1802,-4.1807,0,0,0,0,0,0,0,0,0,0,0,0,0,-4.1587,-4.1508,-4.1704,-4.1688,-4.1687,-4.1783,-4.1784,-4.1785,-4.1729,-4.1725,-4.1722,-4.1718,-4.1795,-4.1801,-4.1808,-4.1924,0,0,-4.1828,-4.1831,0,0,0,0,0,0,0,0,-4.1582,-4.1594,-4.1689,-4.1689,-4.1688,-4.1742,-4.1741,-4.1832,-4.173,-4.1713,-4.1721,-4.1716,-4.1782,-4.179,-4.1812,-4.1927,-4.1931,-4.1828,-4.1832,-4.1835,-4.1837,0,0,0,0,0,0,0,-4.1576,-4.1591,-4.1736,-4.1691,-4.169,-4.1675,-4.1683,-4.1758,-4.1768,-4.1714,-4.171,-4.1721,-4.1781,-4.1806,-4.1814,-4.1932,-4.1828,-4.1834,-4.1838,-4.1841,-4.2146,-4.215,0,0,0,0,0,0,-4.1573,-4.1586,-4.1733,-4.1738,-4.1625,-4.1682,-4.1691,-4.1729,-4.1767,-4.1769,-4.1724,-4.1718,-4.1797,-4.1806,-4.1816,-4.1955,-4.1835,-4.1841,-4.1845,-4.2142,-4.2147,-4.2151,0,0,0,0,0,0,-4.1568,-4.1586,-4.173,-4.1661,-4.1678,-4.1689,-4.1732,-4.1732,-4.1757,-4.1774,-4.1775,-4.1748,-4.1794,-4.1807,-4.1898,-4.1957,-4.1844,-4.185,-4.2137,-4.2143,-4.2149,-4.2234,0,0,0,0,0,0,-4.1563,-4.1585,-4.163,-4.1663,-4.1682,-4.1811,-4.1736,-4.1736,-4.1769,-4.1762,-4.1797,-4.1799,-4.1792,-4.1888,-4.1904,-4.1964,-4.1856,-4.2131,-4.214,-4.2147,-4.2226,-4.2242,-4.2256,0,0,0,0,0,-4.1556,-4.165,-4.1632,-4.165,-4.1739,-4.1815,-4.1826,-4.1817,-4.1774,-4.1819,-4.183,-4.1798,-4.1948,-4.1898,-4.1916,-4.1978,-4.2128,-4.2137,-4.2146,-4.2219,-4.2239,-4.2256,0,0,0,0,0,0,-4.1622,-4.1654,-4.1635,-4.1742,-4.1777,-4.1805,-4.1861,-4.1839,-4.1885,-4.1876,-4.1862,-4.1871,-4.1966,-4.1981,-4.1925,-4.2093,-4.2031,-4.2044,-4.208,-4.2099,-4.2114,-4.2108,-4.1861,0,0,0,0,0,-4.165,-4.171,-4.1733,-4.1826,-4.1844,-4.185,-4.1883,-4.1873,-4.1908,-4.1922,-4.1939,-4.1973,-4.2027,-4.2064,-4.2115,-4.2227,-4.2234,-4.2279,-4.2294,-4.2306,-4.2318,-4.2379,-4.24,-4.2182,-4.2182,-4.2182,0,0,-4.1707,-4.1731,-4.177,-4.184,-4.1865,-4.1927,-4.1862,-4.193,-4.1976,-4.1931,-4.2019,-4.2033,-4.2069,-4.2172,-4.2217,-4.2187,-4.238,-4.2318,-4.2328,-4.2333,-4.2391,-4.2411,-4.243,-4.2188,-4.2187,-4.2186,0,0,-4.1842,-4.1867,-4.1947,-4.1974,-4.2014,-4.2017,-4.2036,-4.2069,-4.2077,-4.2164,-4.2132,-4.2185,-4.228,-4.2308,-4.2334,-4.2481,-4.2454,-4.2498,-4.2577,-4.2637,-4.2654,-4.2669,-4.2722,-4.2741,-4.2509,-4.251,-4.251,0,-4.1908,-4.2001,-4.199,-4.2062,-4.2094,-4.2057,-4.2138,-4.2164,-4.2218,-4.2241,-4.2206,-4.2325,-4.2346,-4.2455,-4.2491,-4.2513,-4.2535,-4.2494,-4.2653,-4.2668,-4.2682,-4.2732,-4.2752,-4.2515,-4.2514,-4.2514,-4.2513,0,-4.2079,-4.2145,-4.2204,-4.2259,-4.2297,-4.2373,-4.2374,-4.2414,-4.2401,-4.2408,-4.2497,-4.2523,-4.2579,-4.2603,-4.2591,-4.2711,-4.2691,-4.2655,-4.2592,-4.2708,-4.2755,-4.2774,-4.2522,-4.252,-4.2519,-4.2517,0,0,-4.2259,-4.2308,-4.233,-4.2355,-4.2396,-4.2446,-4.252,-4.2576,-4.2611,-4.2649,-4.271,-4.2791,-4.2759,-4.2789,-4.2779,-4.2831,-4.2947,-4.2789,-4.2789,-4.2818,-4.3081,-4.3108,-4.3131,-4.2929,-4.2932,-4.2935,-4.3078,0,-4.2397,-4.2528,-4.2521,-4.2642,-4.2702,-4.2669,-4.2733,-4.2765,-4.2773,-4.2825,-4.2833,-4.2891,-4.2843,-4.2861,-4.2911,-4.2922,-4.3,-4.2912,-4.2985,-4.2988,-4.2979,-4.3155,-4.3185,-4.3318,-4.3096,-4.3099,-4.3102,0,-4.2576,-4.2623,-4.2751,-4.2784,-4.2809,-4.2867,-4.2918,-4.2968,-4.3003,-4.3005,-4.304,-4.3022,-4.3095,-4.3031,-4.3132,-4.3073,-4.3102,-4.3112,-4.3117,-4.3124,-4.3053,-4.3168,-4.336,-4.3381,-4.313,-4.3128,-4.3126,0,-4.2696,-4.279,-4.2879,-4.2901,-4.2941,-4.2983,-4.3002,-4.3034,-4.3068,-4.3112,-4.3134,-4.3186,-4.3215,-4.3255,-4.3251,-4.3204,-4.3354,-4.3289,-4.3358,-4.3359,-4.3392,-4.339,-4.3593,-4.341,-4.3409,-4.3409,-4.3409,0,-4.2851,-4.2931,-4.2933,-4.2988,-4.3077,-4.3067,-4.3155,-4.3169,-4.3197,-4.3254,-4.3227,-4.328,-4.3272,-4.3325,-4.3322,-4.3407,-4.3419,-4.3423,-4.3422,-4.3426,-4.3426,-4.3446,-4.3437,-4.3414,-4.3413,-4.3412,-4.3411,0,-4.3,-4.3005,-4.31,-4.3131,-4.314,-4.3204,-4.323,-4.3282,-4.3288,-4.336,-4.3376,-4.3386,-4.3447,-4.3447,-4.3516,-4.3514,-4.3619,-4.3606,-4.3608,-4.3605,-4.3675,-4.3669,-4.3898,-4.3928,-4.3725,-4.3727,-4.3728,0,-4.31,-4.3161,-4.3199,-4.3235,-4.3257,-4.3316,-4.3352,-4.3345,-4.3382,-4.3428,-4.3474,-4.3533,-4.358,-4.3679,-4.3692,-4.3745,-4.3734,-4.381,-4.3741,-4.3745,-4.3736,-4.3733,-4.3739,-4.3824,-4.3826,-4.3828,-4.383,0,-4.3276,-4.3276,-4.3328,-4.3383,-4.3426,-4.3468,-4.3506,-4.3537,-4.3535,-4.3578,-4.3642,-4.3678,-4.375,-4.3809,-4.386,-4.3878,-4.3854,-4.3851,-4.387,-4.3876,-4.3875,-4.3878,-4.3645,-4.3846,-4.3845,-4.3843,-4.3843,-4.3842,-4.3404,-4.3457,-4.3493,-4.3552,-4.3581,-4.3618,-4.3668,-4.3681,-4.3734,-4.3793,-4.3785,-4.3856,-4.389,-4.3956,-4.3979,-4.4033,-4.4006,-4.4034,-4.4041,-4.4048,-4.4056,-4.3866,-4.4042,-4.4042,-4.4041,-4.4041,-4.4041,0,-4.358,-4.3601,-4.3656,-4.3712,-4.3759,-4.3733,-4.3775,-4.3816,-4.3879,-4.3912,-4.396,-4.4033,-4.409,-4.4107,-4.4162,-4.4202,-4.4193,-4.4217,-4.4215,-4.4219,-4.4076,-4.4055,-4.4224,-4.4224,-4.4224,-4.4224,-4.4224,-4.4224,-4.3677,-4.3766,-4.377,-4.3872,-4.3892,-4.3963,-4.3989,-4.4022,-4.405,-4.4133,-4.4181,-4.4192,-4.4219,-4.4276,-4.4327,-4.4331,-4.4353,-4.4382,-4.4381,-4.4248,-4.4229,-4.4212,-4.4192,-4.4387,-4.4387,-4.452,-4.4521,-4.4522]}]]